Time,TemperatureF,DewpointF,PressureIn,WindDirection,WindDirectionDegrees,WindSpeedMPH,WindSpeedGustMPH,Humidity,HourlyPrecipIn,Conditions,Clouds,dailyrainin,SoftwareType,DateUTC
2013-11-16 00:00:00,28.2,25.9,30.10,NE,45,2.0,4.0,91,0.00,,,0.00,Wunderground PWS Mod,2013-11-16 05:00:00,
2013-11-16 00:05:00,28.2,25.9,30.10,NE,45,2.0,4.0,91,0.00,,,0.00,Wunderground PWS Mod,2013-11-16 05:05:00,
2013-11-16 00:10:00,28.2,25.9,30.10,NE,45,2.0,4.0,91,0.00,,,0.00,Wunderground PWS Mod,2013-11-16 05:10:00,
2013-11-16 00:15:00,28.2,25.9,30.10,NE,45,2.0,4.0,91,0.00,,,0.00,Wunderground PWS Mod,2013-11-16 05:15:00,
2013-11-16 00:20:00,28.2,25.9,30.10,NE,45,2.0,4.0,91,0.00,,,0.00,Wunderground PWS Mod,2013-11-16 05:20:00,
2013-11-16 00:25:00,28.2,25.9,30.10,NE,45,2.0,4.0,91,0.00,,,0.00,Wunderground PWS Mod,2013-11-16 05:25:00,
2013-11-16 00:30:00,28.2,25.9,30.10,NE,45,2.0,4.0,91,0.00,,,0.00,Wunderground PWS Mod,2013-11-16 05:30:00,
2013-11-16 00:35:00,28.2,25.9,30.10,NE,45,2.0,4.0,91,0.00,,,0.00,Wunderground PWS Mod,2013-11-16 05:35:00,
2013-11-16 00:40:00,28.2,25.9,30.10,NE,45,2.0,4.0,91,0.00,,,0.00,Wunderground PWS Mod,2013-11-16 05:40:00,
2013-11-16 00:45:00,28.2,26.2,30.10,NE,45,2.0,4.0,92,0.00,,,0.00,Wunderground PWS Mod,2013-11-16 05:45:00,
2013-11-16 00:50:00,28.2,26.2,30.10,NE,45,2.0,4.0,92,0.00,,,0.00,Wunderground PWS Mod,2013-11-16 05:50:00,
2013-11-16 00:55:00,28.2,26.2,30.10,NE,45,2.0,4.0,92,0.00,,,0.00,Wunderground PWS Mod,2013-11-16 05:55:00,
2013-11-16 01:00:00,28.2,26.2,30.10,NE,45,2.0,4.0,92,0.00,,,0.00,Wunderground PWS Mod,2013-11-16 06:00:00,
2013-11-16 01:05:00,28.2,26.2,30.10,NE,45,2.0,4.0,92,0.00,,,0.00,Wunderground PWS Mod,2013-11-16 06:05:00,
2013-11-16 01:10:00,28.2,26.2,30.10,NE,45,2.0,4.0,92,0.00,,,0.00,Wunderground PWS Mod,2013-11-16 06:10:00,
2013-11-16 01:15:00,28.4,26.1,30.10,NE,45,1.0,4.0,91,0.00,,,0.00,Wunderground PWS Mod,2013-11-16 06:15:00,
2013-11-16 01:20:00,28.4,26.1,30.10,NE,45,1.0,4.0,91,0.00,,,0.00,Wunderground PWS Mod,2013-11-16 06:20:00,
2013-11-16 01:25:00,28.4,26.1,30.10,NE,45,1.0,4.0,91,0.00,,,0.00,Wunderground PWS Mod,2013-11-16 06:25:00,
2013-11-16 01:30:00,28.4,26.1,30.10,NE,45,1.0,4.0,91,0.00,,,0.00,Wunderground PWS Mod,2013-11-16 06:30:00,
2013-11-16 01:35:00,28.4,26.1,30.10,NE,45,1.0,4.0,91,0.00,,,0.00,Wunderground PWS Mod,2013-11-16 06:35:00,
2013-11-16 01:40:00,28.4,26.1,30.10,NE,45,1.0,4.0,91,0.00,,,0.00,Wunderground PWS Mod,2013-11-16 06:40:00,
2013-11-16 01:45:00,28.5,26.2,30.11,NE,45,0.0,1.0,91,0.00,,,0.00,Wunderground PWS Mod,2013-11-16 06:45:00,
2013-11-16 01:50:00,28.5,26.2,30.11,NE,45,0.0,1.0,91,0.00,,,0.00,Wunderground PWS Mod,2013-11-16 06:50:00,
2013-11-16 01:55:00,28.5,26.2,30.11,NE,45,0.0,1.0,91,0.00,,,0.00,Wunderground PWS Mod,2013-11-16 06:55:00,
2013-11-16 02:00:00,28.5,26.2,30.11,NE,45,0.0,1.0,91,0.00,,,0.00,Wunderground PWS Mod,2013-11-16 07:00:00,
2013-11-16 02:05:00,28.5,26.2,30.11,NE,45,0.0,1.0,91,0.00,,,0.00,Wunderground PWS Mod,2013-11-16 07:05:00,
2013-11-16 02:10:00,28.5,26.2,30.11,NE,45,0.0,1.0,91,0.00,,,0.00,Wunderground PWS Mod,2013-11-16 07:10:00,
2013-11-16 02:15:00,28.8,26.8,30.10,NE,45,0.0,2.0,92,0.00,,,0.00,Wunderground PWS Mod,2013-11-16 07:15:00,
2013-11-16 02:20:00,28.8,26.8,30.10,NE,45,0.0,2.0,92,0.00,,,0.00,Wunderground PWS Mod,2013-11-16 07:20:00,
2013-11-16 02:25:00,28.8,26.8,30.10,NE,45,0.0,2.0,92,0.00,,,0.00,Wunderground PWS Mod,2013-11-16 07:25:00,
2013-11-16 02:30:00,28.8,26.8,30.10,NE,45,0.0,2.0,92,0.00,,,0.00,Wunderground PWS Mod,2013-11-16 07:30:00,
2013-11-16 02:35:00,28.8,26.8,30.10,NE,45,0.0,2.0,92,0.00,,,0.00,Wunderground PWS Mod,2013-11-16 07:35:00,
2013-11-16 02:40:00,28.8,26.8,30.10,NE,45,0.0,2.0,92,0.00,,,0.00,Wunderground PWS Mod,2013-11-16 07:40:00,
2013-11-16 02:45:00,29.0,27.0,30.11,NE,45,1.0,4.0,92,0.00,,,0.00,Wunderground PWS Mod,2013-11-16 07:45:00,
2013-11-16 02:50:00,29.0,27.0,30.11,NE,45,1.0,4.0,92,0.00,,,0.00,Wunderground PWS Mod,2013-11-16 07:50:00,
2013-11-16 02:55:00,29.0,27.0,30.11,NE,45,1.0,4.0,92,0.00,,,0.00,Wunderground PWS Mod,2013-11-16 07:55:00,
2013-11-16 03:00:00,29.0,27.0,30.11,NE,45,1.0,4.0,92,0.00,,,0.00,Wunderground PWS Mod,2013-11-16 08:00:00,
2013-11-16 03:05:00,29.0,27.0,30.11,NE,45,1.0,4.0,92,0.00,,,0.00,Wunderground PWS Mod,2013-11-16 08:05:00,
2013-11-16 03:10:00,29.0,27.0,30.11,NE,45,1.0,4.0,92,0.00,,,0.00,Wunderground PWS Mod,2013-11-16 08:10:00,
2013-11-16 03:15:00,29.4,26.8,30.15,NE,45,0.0,1.0,90,0.00,,,0.00,Wunderground PWS Mod,2013-11-16 08:15:00,
2013-11-16 03:20:00,29.4,26.8,30.15,NE,45,0.0,1.0,90,0.00,,,0.00,Wunderground PWS Mod,2013-11-16 08:20:00,
2013-11-16 03:25:00,29.4,26.8,30.15,NE,45,0.0,1.0,90,0.00,,,0.00,Wunderground PWS Mod,2013-11-16 08:25:00,
2013-11-16 03:30:00,29.4,26.8,30.15,NE,45,0.0,1.0,90,0.00,,,0.00,Wunderground PWS Mod,2013-11-16 08:30:00,
2013-11-16 03:35:00,29.4,26.8,30.15,NE,45,0.0,1.0,90,0.00,,,0.00,Wunderground PWS Mod,2013-11-16 08:35:00,
2013-11-16 03:40:00,29.4,26.8,30.15,NE,45,0.0,1.0,90,0.00,,,0.00,Wunderground PWS Mod,2013-11-16 08:40:00,
2013-11-16 03:45:00,29.7,27.4,30.17,NE,45,0.0,2.0,91,0.00,,,0.00,Wunderground PWS Mod,2013-11-16 08:45:00,
2013-11-16 03:50:00,29.7,27.4,30.17,NE,45,0.0,2.0,91,0.00,,,0.00,Wunderground PWS Mod,2013-11-16 08:50:00,
2013-11-16 03:55:00,29.7,27.4,30.17,NE,45,0.0,2.0,91,0.00,,,0.00,Wunderground PWS Mod,2013-11-16 08:55:00,
2013-11-16 04:00:00,29.7,27.4,30.17,NE,45,0.0,2.0,91,0.00,,,0.00,Wunderground PWS Mod,2013-11-16 09:00:00,
2013-11-16 04:05:00,29.7,27.4,30.17,NE,45,0.0,2.0,91,0.00,,,0.00,Wunderground PWS Mod,2013-11-16 09:05:00,
2013-11-16 04:10:00,29.7,27.4,30.17,NE,45,0.0,2.0,91,0.00,,,0.00,Wunderground PWS Mod,2013-11-16 09:10:00,
2013-11-16 04:15:00,30.0,27.7,30.16,NE,45,0.0,2.0,91,0.00,,,0.00,Wunderground PWS Mod,2013-11-16 09:15:00,
2013-11-16 04:20:00,30.0,27.7,30.16,NE,45,0.0,2.0,91,0.00,,,0.00,Wunderground PWS Mod,2013-11-16 09:20:00,
2013-11-16 04:25:00,30.0,27.7,30.16,NE,45,0.0,2.0,91,0.00,,,0.00,Wunderground PWS Mod,2013-11-16 09:25:00,
2013-11-16 04:30:00,30.0,27.7,30.16,NE,45,0.0,2.0,91,0.00,,,0.00,Wunderground PWS Mod,2013-11-16 09:30:00,
2013-11-16 04:35:00,30.0,27.7,30.16,NE,45,0.0,2.0,91,0.00,,,0.00,Wunderground PWS Mod,2013-11-16 09:35:00,
2013-11-16 04:40:00,30.0,27.7,30.16,NE,45,0.0,2.0,91,0.00,,,0.00,Wunderground PWS Mod,2013-11-16 09:40:00,
2013-11-16 04:45:00,30.0,27.7,30.17,NE,45,0.0,2.0,91,0.00,,,0.00,Wunderground PWS Mod,2013-11-16 09:45:00,
2013-11-16 04:50:00,30.0,27.7,30.17,NE,45,0.0,2.0,91,0.00,,,0.00,Wunderground PWS Mod,2013-11-16 09:50:00,
2013-11-16 04:55:00,30.0,27.7,30.17,NE,45,0.0,2.0,91,0.00,,,0.00,Wunderground PWS Mod,2013-11-16 09:55:00,
2013-11-16 05:00:00,30.0,27.7,30.17,NE,45,0.0,2.0,91,0.00,,,0.00,Wunderground PWS Mod,2013-11-16 10:00:00,
2013-11-16 05:05:00,30.0,27.7,30.17,NE,45,0.0,2.0,91,0.00,,,0.00,Wunderground PWS Mod,2013-11-16 10:05:00,
2013-11-16 05:10:00,30.0,27.7,30.17,NE,45,0.0,2.0,91,0.00,,,0.00,Wunderground PWS Mod,2013-11-16 10:10:00,
2013-11-16 05:20:00,30.0,28.0,30.18,NE,45,0.0,1.0,92,0.00,,,0.00,Wunderground PWS Mod,2013-11-16 10:20:00,
2013-11-16 05:25:00,30.0,28.0,30.18,NE,45,0.0,1.0,92,0.00,,,0.00,Wunderground PWS Mod,2013-11-16 10:25:00,
2013-11-16 05:30:00,30.0,28.0,30.18,NE,45,0.0,1.0,92,0.00,,,0.00,Wunderground PWS Mod,2013-11-16 10:30:00,
2013-11-16 05:35:00,30.0,28.0,30.18,NE,45,0.0,1.0,92,0.00,,,0.00,Wunderground PWS Mod,2013-11-16 10:35:00,
2013-11-16 05:40:00,30.0,28.0,30.18,NE,45,0.0,1.0,92,0.00,,,0.00,Wunderground PWS Mod,2013-11-16 10:40:00,
2013-11-16 05:45:00,30.1,28.1,30.18,NE,45,0.0,2.0,92,0.00,,,0.00,Wunderground PWS Mod,2013-11-16 10:45:00,
2013-11-16 05:50:00,30.1,28.1,30.18,NE,45,0.0,2.0,92,0.00,,,0.00,Wunderground PWS Mod,2013-11-16 10:50:00,
2013-11-16 05:55:00,30.1,28.1,30.18,NE,45,0.0,2.0,92,0.00,,,0.00,Wunderground PWS Mod,2013-11-16 10:55:00,
2013-11-16 06:00:00,30.1,28.1,30.18,NE,45,0.0,2.0,92,0.00,,,0.00,Wunderground PWS Mod,2013-11-16 11:00:00,
2013-11-16 06:05:00,30.1,28.1,30.18,NE,45,0.0,2.0,92,0.00,,,0.00,Wunderground PWS Mod,2013-11-16 11:05:00,
2013-11-16 06:10:00,30.1,28.1,30.18,NE,45,0.0,2.0,92,0.00,,,0.00,Wunderground PWS Mod,2013-11-16 11:10:00,
2013-11-16 06:15:00,30.4,27.8,30.18,NE,45,0.0,3.0,90,0.00,,,0.00,Wunderground PWS Mod,2013-11-16 11:15:00,
2013-11-16 06:20:00,30.4,27.8,30.18,NE,45,0.0,3.0,90,0.00,,,0.00,Wunderground PWS Mod,2013-11-16 11:20:00,
2013-11-16 06:25:00,30.4,27.8,30.18,NE,45,0.0,3.0,90,0.00,,,0.00,Wunderground PWS Mod,2013-11-16 11:25:00,
2013-11-16 06:30:00,30.4,27.8,30.18,NE,45,0.0,3.0,90,0.00,,,0.00,Wunderground PWS Mod,2013-11-16 11:30:00,
2013-11-16 06:35:00,30.4,27.8,30.18,NE,45,0.0,3.0,90,0.00,,,0.00,Wunderground PWS Mod,2013-11-16 11:35:00,
2013-11-16 06:40:00,30.4,27.8,30.18,NE,45,0.0,3.0,90,0.00,,,0.00,Wunderground PWS Mod,2013-11-16 11:40:00,
2013-11-16 06:45:00,31.0,28.1,30.18,NE,45,1.0,5.0,89,0.00,,,0.00,Wunderground PWS Mod,2013-11-16 11:45:00,
2013-11-16 06:50:00,31.0,28.1,30.18,NE,45,1.0,5.0,89,0.00,,,0.00,Wunderground PWS Mod,2013-11-16 11:50:00,
2013-11-16 07:00:00,31.0,28.1,30.18,NE,45,1.0,5.0,89,0.00,,,0.00,Wunderground PWS Mod,2013-11-16 12:00:00,
2013-11-16 07:05:00,31.0,28.1,30.18,NE,45,1.0,5.0,89,0.00,,,0.00,Wunderground PWS Mod,2013-11-16 12:05:00,
2013-11-16 07:10:00,31.0,28.1,30.18,NE,45,1.0,5.0,89,0.00,,,0.00,Wunderground PWS Mod,2013-11-16 12:10:00,
2013-11-16 07:15:00,31.0,28.1,30.20,ENE,68,2.0,6.0,89,0.00,,,0.00,Wunderground PWS Mod,2013-11-16 12:15:00,
2013-11-16 07:20:00,31.0,28.1,30.20,ENE,68,2.0,6.0,89,0.00,,,0.00,Wunderground PWS Mod,2013-11-16 12:20:00,
2013-11-16 07:25:00,31.0,28.1,30.20,ENE,68,2.0,6.0,89,0.00,,,0.00,Wunderground PWS Mod,2013-11-16 12:25:00,
2013-11-16 07:30:00,31.0,28.1,30.20,ENE,68,2.0,6.0,89,0.00,,,0.00,Wunderground PWS Mod,2013-11-16 12:30:00,
2013-11-16 07:35:00,31.0,28.1,30.20,ENE,68,2.0,6.0,89,0.00,,,0.00,Wunderground PWS Mod,2013-11-16 12:35:00,
2013-11-16 07:40:00,31.0,28.1,30.20,ENE,68,2.0,6.0,89,0.00,,,0.00,Wunderground PWS Mod,2013-11-16 12:40:00,
2013-11-16 07:45:00,31.6,28.7,30.19,NNW,338,0.0,2.0,89,0.00,,,0.00,Wunderground PWS Mod,2013-11-16 12:45:00,
2013-11-16 07:50:00,31.6,28.7,30.19,NNW,338,0.0,2.0,89,0.00,,,0.00,Wunderground PWS Mod,2013-11-16 12:50:00,
2013-11-16 07:55:00,31.6,28.7,30.19,NNW,338,0.0,2.0,89,0.00,,,0.00,Wunderground PWS Mod,2013-11-16 12:55:00,
2013-11-16 08:00:00,31.6,28.7,30.19,NNW,338,0.0,2.0,89,0.00,,,0.00,Wunderground PWS Mod,2013-11-16 13:00:00,
2013-11-16 08:05:00,31.6,28.7,30.19,NNW,338,0.0,2.0,89,0.00,,,0.00,Wunderground PWS Mod,2013-11-16 13:05:00,
2013-11-16 08:10:00,31.6,28.7,30.19,NNW,338,0.0,2.0,89,0.00,,,0.00,Wunderground PWS Mod,2013-11-16 13:10:00,
2013-11-16 08:15:00,33.1,29.1,30.20,NNW,338,0.0,2.0,85,0.00,,,0.00,Wunderground PWS Mod,2013-11-16 13:15:00,
2013-11-16 08:20:00,33.1,29.1,30.20,NNW,338,0.0,2.0,85,0.00,,,0.00,Wunderground PWS Mod,2013-11-16 13:20:00,
2013-11-16 08:25:00,33.1,29.1,30.20,NNW,338,0.0,2.0,85,0.00,,,0.00,Wunderground PWS Mod,2013-11-16 13:25:00,
2013-11-16 08:30:00,33.1,29.1,30.20,NNW,338,0.0,2.0,85,0.00,,,0.00,Wunderground PWS Mod,2013-11-16 13:30:00,
2013-11-16 08:40:00,33.1,29.1,30.20,NNW,338,0.0,2.0,85,0.00,,,0.00,Wunderground PWS Mod,2013-11-16 13:40:00,
2013-11-16 08:45:00,34.9,28.7,30.21,N/A,-737280,0.0,0.0,78,0.00,,,0.00,Wunderground PWS Mod,2013-11-16 13:45:00,
2013-11-16 08:50:00,34.9,28.7,30.21,N/A,-737280,0.0,0.0,78,0.00,,,0.00,Wunderground PWS Mod,2013-11-16 13:50:00,
2013-11-16 08:55:00,34.9,28.7,30.21,N/A,-737280,0.0,0.0,78,0.00,,,0.00,Wunderground PWS Mod,2013-11-16 13:55:00,
2013-11-16 09:00:00,34.9,28.7,30.21,N/A,-737280,0.0,0.0,78,0.00,,,0.00,Wunderground PWS Mod,2013-11-16 14:00:00,
2013-11-16 09:05:00,34.9,28.7,30.21,N/A,-737280,0.0,0.0,78,0.00,,,0.00,Wunderground PWS Mod,2013-11-16 14:05:00,
2013-11-16 09:10:00,34.9,28.7,30.21,N/A,-737280,0.0,0.0,78,0.00,,,0.00,Wunderground PWS Mod,2013-11-16 14:10:00,
2013-11-16 09:15:00,38.8,28.8,30.21,NNW,338,0.0,1.0,67,0.00,,,0.00,Wunderground PWS Mod,2013-11-16 14:15:00,
2013-11-16 09:20:00,38.8,28.8,30.21,NNW,338,0.0,1.0,67,0.00,,,0.00,Wunderground PWS Mod,2013-11-16 14:20:00,
2013-11-16 09:25:00,38.8,28.8,30.21,NNW,338,0.0,1.0,67,0.00,,,0.00,Wunderground PWS Mod,2013-11-16 14:25:00,
2013-11-16 09:30:00,38.8,28.8,30.21,NNW,338,0.0,1.0,67,0.00,,,0.00,Wunderground PWS Mod,2013-11-16 14:30:00,
2013-11-16 09:35:00,38.8,28.8,30.21,NNW,338,0.0,1.0,67,0.00,,,0.00,Wunderground PWS Mod,2013-11-16 14:35:00,
2013-11-16 09:40:00,38.8,28.8,30.21,NNW,338,0.0,1.0,67,0.00,,,0.00,Wunderground PWS Mod,2013-11-16 14:40:00,
2013-11-16 09:45:00,43.3,27.3,30.22,NNW,338,0.0,2.0,53,0.00,,,0.00,Wunderground PWS Mod,2013-11-16 14:45:00,
2013-11-16 09:50:00,43.3,27.3,30.22,NNW,338,0.0,2.0,53,0.00,,,0.00,Wunderground PWS Mod,2013-11-16 14:50:00,
2013-11-16 09:55:00,43.3,27.3,30.22,NNW,338,0.0,2.0,53,0.00,,,0.00,Wunderground PWS Mod,2013-11-16 14:55:00,
2013-11-16 10:00:00,43.3,27.3,30.22,NNW,338,0.0,2.0,53,0.00,,,0.00,Wunderground PWS Mod,2013-11-16 15:00:00,
2013-11-16 10:05:00,43.3,27.3,30.22,NNW,338,0.0,2.0,53,0.00,,,0.00,Wunderground PWS Mod,2013-11-16 15:05:00,
2013-11-16 10:10:00,43.3,27.3,30.22,NNW,338,0.0,2.0,53,0.00,,,0.00,Wunderground PWS Mod,2013-11-16 15:10:00,
2013-11-16 10:15:00,46.0,27.4,30.20,NNW,338,0.0,1.0,48,0.00,,,0.00,Wunderground PWS Mod,2013-11-16 15:15:00,
2013-11-16 10:20:00,46.0,27.4,30.20,NNW,338,0.0,1.0,48,0.00,,,0.00,Wunderground PWS Mod,2013-11-16 15:20:00,
2013-11-16 10:25:00,46.0,27.4,30.20,NNW,338,0.0,1.0,48,0.00,,,0.00,Wunderground PWS Mod,2013-11-16 15:25:00,
2013-11-16 10:30:00,46.0,27.4,30.20,NNW,338,0.0,1.0,48,0.00,,,0.00,Wunderground PWS Mod,2013-11-16 15:30:00,
2013-11-16 10:35:00,46.0,27.4,30.20,NNW,338,0.0,1.0,48,0.00,,,0.00,Wunderground PWS Mod,2013-11-16 15:35:00,
2013-11-16 10:40:00,46.0,27.4,30.20,NNW,338,0.0,1.0,48,0.00,,,0.00,Wunderground PWS Mod,2013-11-16 15:40:00,
2013-11-16 10:45:00,49.2,29.3,30.20,WNW,293,0.0,3.0,46,0.00,,,0.00,Wunderground PWS Mod,2013-11-16 15:45:00,
2013-11-16 10:50:00,49.2,29.3,30.20,WNW,293,0.0,3.0,46,0.00,,,0.00,Wunderground PWS Mod,2013-11-16 15:50:00,
2013-11-16 10:55:00,49.2,29.3,30.20,WNW,293,0.0,3.0,46,0.00,,,0.00,Wunderground PWS Mod,2013-11-16 15:55:00,
2013-11-16 11:00:00,49.2,29.3,30.20,WNW,293,0.0,3.0,46,0.00,,,0.00,Wunderground PWS Mod,2013-11-16 16:00:00,
2013-11-16 11:05:00,49.2,29.3,30.20,WNW,293,0.0,3.0,46,0.00,,,0.00,Wunderground PWS Mod,2013-11-16 16:05:00,
2013-11-16 11:10:00,49.2,29.3,30.20,WNW,293,0.0,3.0,46,0.00,,,0.00,Wunderground PWS Mod,2013-11-16 16:10:00,
2013-11-16 11:15:00,52.5,26.3,30.18,SSW,203,1.0,7.0,36,0.00,,,0.00,Wunderground PWS Mod,2013-11-16 16:15:00,
2013-11-16 11:20:00,52.5,26.3,30.18,SSW,203,1.0,7.0,36,0.00,,,0.00,Wunderground PWS Mod,2013-11-16 16:20:00,
2013-11-16 11:25:00,52.5,26.3,30.18,SSW,203,1.0,7.0,36,0.00,,,0.00,Wunderground PWS Mod,2013-11-16 16:25:00,
2013-11-16 11:30:00,52.5,26.3,30.18,SSW,203,1.0,7.0,36,0.00,,,0.00,Wunderground PWS Mod,2013-11-16 16:30:00,
2013-11-16 11:35:00,52.5,26.3,30.18,SSW,203,1.0,7.0,36,0.00,,,0.00,Wunderground PWS Mod,2013-11-16 16:35:00,
2013-11-16 11:40:00,52.5,26.3,30.18,SSW,203,1.0,7.0,36,0.00,,,0.00,Wunderground PWS Mod,2013-11-16 16:40:00,
2013-11-16 11:45:00,54.1,24.1,30.18,SW,225,2.0,7.0,31,0.00,,,0.00,Wunderground PWS Mod,2013-11-16 16:45:00,
2013-11-16 11:50:00,54.1,24.1,30.18,SW,225,2.0,7.0,31,0.00,,,0.00,Wunderground PWS Mod,2013-11-16 16:50:00,
2013-11-16 11:55:00,54.1,24.1,30.18,SW,225,2.0,7.0,31,0.00,,,0.00,Wunderground PWS Mod,2013-11-16 16:55:00,
2013-11-16 12:00:00,54.1,24.1,30.18,SW,225,2.0,7.0,31,0.00,,,0.00,Wunderground PWS Mod,2013-11-16 17:00:00,
2013-11-16 12:05:00,54.1,24.1,30.18,SW,225,2.0,7.0,31,0.00,,,0.00,Wunderground PWS Mod,2013-11-16 17:05:00,
2013-11-16 12:10:00,54.1,24.1,30.18,SW,225,2.0,7.0,31,0.00,,,0.00,Wunderground PWS Mod,2013-11-16 17:10:00,
2013-11-16 12:15:00,54.5,28.7,30.17,South,180,2.0,9.0,37,0.00,,,0.00,Wunderground PWS Mod,2013-11-16 17:15:00,
2013-11-16 12:20:00,54.5,28.7,30.17,South,180,2.0,9.0,37,0.00,,,0.00,Wunderground PWS Mod,2013-11-16 17:20:00,
2013-11-16 12:25:00,54.5,28.7,30.17,South,180,2.0,9.0,37,0.00,,,0.00,Wunderground PWS Mod,2013-11-16 17:25:00,
2013-11-16 12:30:00,54.5,28.7,30.17,South,180,2.0,9.0,37,0.00,,,0.00,Wunderground PWS Mod,2013-11-16 17:30:00,
2013-11-16 12:35:00,54.5,28.7,30.17,South,180,2.0,9.0,37,0.00,,,0.00,Wunderground PWS Mod,2013-11-16 17:35:00,
2013-11-16 12:40:00,54.5,28.7,30.17,South,180,2.0,9.0,37,0.00,,,0.00,Wunderground PWS Mod,2013-11-16 17:40:00,
2013-11-16 12:45:00,55.3,25.1,30.16,SW,225,3.0,10.0,31,0.00,,,0.00,Wunderground PWS Mod,2013-11-16 17:45:00,
2013-11-16 12:50:00,55.3,25.1,30.16,SW,225,3.0,10.0,31,0.00,,,0.00,Wunderground PWS Mod,2013-11-16 17:50:00,
2013-11-16 12:55:00,55.3,25.1,30.16,SW,225,3.0,10.0,31,0.00,,,0.00,Wunderground PWS Mod,2013-11-16 17:55:00,
2013-11-16 13:00:00,55.3,25.1,30.16,SW,225,3.0,10.0,31,0.00,,,0.00,Wunderground PWS Mod,2013-11-16 18:00:00,
2013-11-16 13:05:00,55.3,25.1,30.16,SW,225,3.0,10.0,31,0.00,,,0.00,Wunderground PWS Mod,2013-11-16 18:05:00,
2013-11-16 13:10:00,55.3,25.1,30.16,SW,225,3.0,10.0,31,0.00,,,0.00,Wunderground PWS Mod,2013-11-16 18:10:00,
2013-11-16 13:15:00,56.6,27.8,30.16,SSW,203,0.0,2.0,33,0.00,,,0.00,Wunderground PWS Mod,2013-11-16 18:15:00,
2013-11-16 13:20:00,56.6,27.8,30.16,SSW,203,0.0,2.0,33,0.00,,,0.00,Wunderground PWS Mod,2013-11-16 18:20:00,
2013-11-16 13:25:00,56.6,27.8,30.16,SSW,203,0.0,2.0,33,0.00,,,0.00,Wunderground PWS Mod,2013-11-16 18:25:00,
2013-11-16 13:30:00,56.6,27.8,30.16,SSW,203,0.0,2.0,33,0.00,,,0.00,Wunderground PWS Mod,2013-11-16 18:30:00,
2013-11-16 13:35:00,56.6,27.8,30.16,SSW,203,0.0,2.0,33,0.00,,,0.00,Wunderground PWS Mod,2013-11-16 18:35:00,
2013-11-16 13:40:00,56.6,27.8,30.16,SSW,203,0.0,2.0,33,0.00,,,0.00,Wunderground PWS Mod,2013-11-16 18:40:00,
2013-11-16 13:45:00,56.5,26.2,30.16,SSW,203,1.0,6.0,31,0.00,,,0.00,Wunderground PWS Mod,2013-11-16 18:45:00,
2013-11-16 13:50:00,56.5,26.2,30.16,SSW,203,1.0,6.0,31,0.00,,,0.00,Wunderground PWS Mod,2013-11-16 18:50:00,
2013-11-16 13:55:00,56.5,26.2,30.16,SSW,203,1.0,6.0,31,0.00,,,0.00,Wunderground PWS Mod,2013-11-16 18:55:00,
2013-11-16 14:00:00,56.5,26.2,30.16,SSW,203,1.0,6.0,31,0.00,,,0.00,Wunderground PWS Mod,2013-11-16 19:00:00,
2013-11-16 14:05:00,56.5,26.2,30.16,SSW,203,1.0,6.0,31,0.00,,,0.00,Wunderground PWS Mod,2013-11-16 19:05:00,
2013-11-16 14:10:00,56.5,26.2,30.16,SSW,203,1.0,6.0,31,0.00,,,0.00,Wunderground PWS Mod,2013-11-16 19:10:00,
2013-11-16 14:15:00,55.9,29.3,30.16,WSW,248,1.0,6.0,36,0.00,,,0.00,Wunderground PWS Mod,2013-11-16 19:15:00,
2013-11-16 14:20:00,55.9,29.3,30.16,WSW,248,1.0,6.0,36,0.00,,,0.00,Wunderground PWS Mod,2013-11-16 19:20:00,
2013-11-16 14:25:00,55.9,29.3,30.16,WSW,248,1.0,6.0,36,0.00,,,0.00,Wunderground PWS Mod,2013-11-16 19:25:00,
2013-11-16 14:30:00,55.9,29.3,30.16,WSW,248,1.0,6.0,36,0.00,,,0.00,Wunderground PWS Mod,2013-11-16 19:30:00,
2013-11-16 14:35:00,55.9,29.3,30.16,WSW,248,1.0,6.0,36,0.00,,,0.00,Wunderground PWS Mod,2013-11-16 19:35:00,
2013-11-16 14:40:00,55.9,29.3,30.16,WSW,248,1.0,6.0,36,0.00,,,0.00,Wunderground PWS Mod,2013-11-16 19:40:00,
2013-11-16 14:45:00,51.7,29.9,30.16,WSW,248,0.0,2.0,43,0.00,,,0.00,Wunderground PWS Mod,2013-11-16 19:45:00,
2013-11-16 14:50:00,51.7,29.9,30.16,WSW,248,0.0,2.0,43,0.00,,,0.00,Wunderground PWS Mod,2013-11-16 19:50:00,
2013-11-16 14:55:00,52.5,28.2,30.16,WSW,250,0.0,6.0,39,0.00,,,0.00,Wunderground PWS Mod,2013-11-16 19:55:00,
2013-11-16 15:00:00,51.3,30.7,30.16,WSW,250,0.0,6.0,45,0.00,,,0.00,Wunderground PWS Mod,2013-11-16 20:00:00,
2013-11-16 15:05:00,50.4,30.4,30.16,WSW,250,0.0,2.0,46,0.00,,,0.00,Wunderground PWS Mod,2013-11-16 20:05:00,
2013-11-16 15:10:00,49.5,30.6,30.16,WSW,250,0.0,2.0,48,0.00,,,0.00,Wunderground PWS Mod,2013-11-16 20:10:00,
2013-11-16 15:15:00,48.9,32.0,30.17,WSW,250,0.0,2.0,52,0.00,,,0.00,Wunderground PWS Mod,2013-11-16 20:15:00,
2013-11-16 15:20:00,48.3,31.9,30.17,WSW,250,0.0,2.0,53,0.00,,,0.00,Wunderground PWS Mod,2013-11-16 20:20:00,
2013-11-16 15:25:00,47.7,32.3,30.17,WSW,250,0.0,2.0,55,0.00,,,0.00,Wunderground PWS Mod,2013-11-16 20:25:00,
2013-11-16 15:30:00,47.1,33.1,30.17,WSW,250,0.0,2.0,58,0.00,,,0.00,Wunderground PWS Mod,2013-11-16 20:30:00,
2013-11-16 15:35:00,46.8,32.8,30.17,WSW,250,0.0,1.0,58,0.00,,,0.00,Wunderground PWS Mod,2013-11-16 20:35:00,
2013-11-16 15:40:00,46.1,32.1,30.17,WSW,251,0.0,1.0,58,0.00,,,0.00,Wunderground PWS Mod,2013-11-16 20:40:00,
2013-11-16 15:45:00,45.5,32.4,30.17,WSW,251,0.0,1.0,60,0.00,,,0.00,Wunderground PWS Mod,2013-11-16 20:45:00,
2013-11-16 15:50:00,44.8,33.0,30.17,WSW,251,0.0,1.0,63,0.00,,,0.00,Wunderground PWS Mod,2013-11-16 20:50:00,
2013-11-16 15:55:00,43.8,32.4,30.17,WNW,284,0.0,1.0,64,0.00,,,0.00,Wunderground PWS Mod,2013-11-16 20:55:00,
2013-11-16 16:00:00,42.9,32.3,30.18,WNW,284,0.0,1.0,66,0.00,,,0.00,Wunderground PWS Mod,2013-11-16 21:00:00,
2013-11-16 16:05:00,42.2,32.4,30.18,WNW,284,0.0,2.0,68,0.00,,,0.00,Wunderground PWS Mod,2013-11-16 21:05:00,
2013-11-16 16:10:00,41.5,32.1,30.18,WNW,284,0.0,2.0,69,0.00,,,0.00,Wunderground PWS Mod,2013-11-16 21:10:00,
2013-11-16 16:15:00,40.8,31.8,30.18,WNW,284,0.0,2.0,70,0.00,,,0.00,Wunderground PWS Mod,2013-11-16 21:15:00,
2013-11-16 16:20:00,40.2,31.9,30.18,WNW,284,0.0,2.0,72,0.00,,,0.00,Wunderground PWS Mod,2013-11-16 21:20:00,
2013-11-16 16:25:00,39.8,31.8,30.18,WNW,284,0.0,2.0,73,0.00,,,0.00,Wunderground PWS Mod,2013-11-16 21:25:00,
2013-11-16 16:30:00,39.3,31.7,30.19,WNW,284,0.0,2.0,74,0.00,,,0.00,Wunderground PWS Mod,2013-11-16 21:30:00,
2013-11-16 16:35:00,38.9,31.3,30.19,WNW,284,0.0,1.0,74,0.00,,,0.00,Wunderground PWS Mod,2013-11-16 21:35:00,
2013-11-16 16:40:00,38.2,31.0,30.19,North,355,1.0,2.0,75,0.00,,,0.00,Wunderground PWS Mod,2013-11-16 21:40:00,
2013-11-16 16:45:00,37.8,30.9,30.19,North,355,1.0,1.0,76,0.00,,,0.00,Wunderground PWS Mod,2013-11-16 21:45:00,
2013-11-16 16:50:00,37.2,31.0,30.19,North,355,0.0,1.0,78,0.00,,,0.00,Wunderground PWS Mod,2013-11-16 21:50:00,
2013-11-16 16:55:00,36.6,30.7,30.19,North,355,0.0,1.0,79,0.00,,,0.00,Wunderground PWS Mod,2013-11-16 21:55:00,
2013-11-16 17:00:00,36.2,30.6,30.20,North,355,1.0,1.0,80,0.00,,,0.00,Wunderground PWS Mod,2013-11-16 22:00:00,
2013-11-16 17:05:00,36.0,30.4,30.20,North,355,1.0,3.0,80,0.00,,,0.00,Wunderground PWS Mod,2013-11-16 22:05:00,
2013-11-16 17:10:00,35.8,30.2,30.20,North,355,0.0,3.0,80,0.00,,,0.00,Wunderground PWS Mod,2013-11-16 22:10:00,
2013-11-16 17:15:00,35.5,30.2,30.21,North,355,0.0,3.0,81,0.00,,,0.00,Wunderground PWS Mod,2013-11-16 22:15:00,
2013-11-16 17:20:00,35.0,30.1,30.21,North,355,0.0,3.0,82,0.00,,,0.00,Wunderground PWS Mod,2013-11-16 22:20:00,
2013-11-16 17:25:00,34.7,30.1,30.21,North,355,0.0,3.0,83,0.00,,,0.00,Wunderground PWS Mod,2013-11-16 22:25:00,
2013-11-16 17:30:00,34.4,29.8,30.21,North,355,0.0,3.0,83,0.00,,,0.00,Wunderground PWS Mod,2013-11-16 22:30:00,
2013-11-16 17:35:00,34.0,29.7,30.21,North,355,0.0,1.0,84,0.00,,,0.00,Wunderground PWS Mod,2013-11-16 22:35:00,
2013-11-16 17:40:00,33.5,29.5,30.21,North,355,0.0,1.0,85,0.00,,,0.00,Wunderground PWS Mod,2013-11-16 22:40:00,
2013-11-16 17:45:00,33.2,29.5,30.21,North,355,1.0,1.0,86,0.00,,,0.00,Wunderground PWS Mod,2013-11-16 22:45:00,
2013-11-16 17:50:00,33.1,29.4,30.21,North,355,1.0,1.0,86,0.00,,,0.00,Wunderground PWS Mod,2013-11-16 22:50:00,
2013-11-16 17:55:00,32.9,29.5,30.21,North,355,0.0,1.0,87,0.00,,,0.00,Wunderground PWS Mod,2013-11-16 22:55:00,
2013-11-16 18:00:00,32.7,29.3,30.21,North,355,0.0,1.0,87,0.00,,,0.00,Wunderground PWS Mod,2013-11-16 23:00:00,
2013-11-16 18:05:00,32.4,29.2,30.21,North,355,1.0,2.0,88,0.00,,,0.00,Wunderground PWS Mod,2013-11-16 23:05:00,
2013-11-16 18:10:00,32.4,29.2,30.21,North,355,2.0,2.0,88,0.00,,,0.00,Wunderground PWS Mod,2013-11-16 23:10:00,
2013-11-16 18:15:00,32.1,28.9,30.22,North,355,1.0,2.0,88,0.00,,,0.00,Wunderground PWS Mod,2013-11-16 23:15:00,
2013-11-16 18:20:00,31.9,29.0,30.22,North,355,1.0,3.0,89,0.00,,,0.00,Wunderground PWS Mod,2013-11-16 23:20:00,
2013-11-16 18:25:00,31.6,28.7,30.22,North,355,2.0,2.0,89,0.00,,,0.00,Wunderground PWS Mod,2013-11-16 23:25:00,
2013-11-16 18:30:00,31.6,29.0,30.22,North,355,2.0,2.0,90,0.00,,,0.00,Wunderground PWS Mod,2013-11-16 23:30:00,
2013-11-16 18:35:00,31.6,28.7,30.22,NNE,15,2.0,4.0,89,0.00,,,0.00,Wunderground PWS Mod,2013-11-16 23:35:00,
2013-11-16 18:40:00,31.3,28.4,30.22,NNE,15,2.0,4.0,89,0.00,,,0.00,Wunderground PWS Mod,2013-11-16 23:40:00,
2013-11-16 18:45:00,31.3,28.7,30.22,NNE,15,2.0,4.0,90,0.00,,,0.00,Wunderground PWS Mod,2013-11-16 23:45:00,
2013-11-16 18:50:00,31.3,28.4,30.22,NNE,15,1.0,4.0,89,0.00,,,0.00,Wunderground PWS Mod,2013-11-16 23:50:00,
2013-11-16 18:55:00,31.2,28.6,30.22,NNE,15,1.0,4.0,90,0.00,,,0.00,Wunderground PWS Mod,2013-11-16 23:55:00,
2013-11-16 19:00:00,30.9,28.3,30.23,NNE,15,1.0,4.0,90,0.00,,,0.00,Wunderground PWS Mod,2013-11-17 00:00:00,
2013-11-16 19:05:00,30.7,28.4,30.23,NNE,15,1.0,4.0,91,0.00,,,0.00,Wunderground PWS Mod,2013-11-17 00:05:00,
2013-11-16 19:10:00,30.6,28.3,30.23,NNE,15,2.0,4.0,91,0.00,,,0.00,Wunderground PWS Mod,2013-11-17 00:10:00,
2013-11-16 19:15:00,30.6,28.0,30.22,NNE,15,1.0,4.0,90,0.00,,,0.00,Wunderground PWS Mod,2013-11-17 00:15:00,
2013-11-16 19:20:00,30.4,28.1,30.22,NNE,15,0.0,4.0,91,0.00,,,0.00,Wunderground PWS Mod,2013-11-17 00:20:00,
2013-11-16 19:25:00,30.3,28.0,30.22,NNE,15,0.0,4.0,91,0.00,,,0.00,Wunderground PWS Mod,2013-11-17 00:25:00,
2013-11-16 19:30:00,30.0,27.7,30.21,NNE,15,1.0,4.0,91,0.00,,,0.00,Wunderground PWS Mod,2013-11-17 00:30:00,
2013-11-16 19:35:00,29.8,27.8,30.21,NNE,15,1.0,4.0,92,0.00,,,0.00,Wunderground PWS Mod,2013-11-17 00:35:00,
2013-11-16 19:40:00,29.7,27.7,30.21,NNE,15,0.0,4.0,92,0.00,,,0.00,Wunderground PWS Mod,2013-11-17 00:40:00,
2013-11-16 19:45:00,29.5,27.7,30.21,NNE,15,1.0,4.0,93,0.00,,,0.00,Wunderground PWS Mod,2013-11-17 00:45:00,
2013-11-16 19:50:00,29.4,27.6,30.21,NNE,15,2.0,4.0,93,0.00,,,0.00,Wunderground PWS Mod,2013-11-17 00:50:00,
2013-11-16 19:55:00,29.4,27.6,30.21,NNE,15,2.0,4.0,93,0.00,,,0.00,Wunderground PWS Mod,2013-11-17 00:55:00,
2013-11-16 20:00:00,29.3,27.5,30.21,NNE,15,2.0,4.0,93,0.00,,,0.00,Wunderground PWS Mod,2013-11-17 01:00:00,
2013-11-16 20:05:00,29.1,27.3,30.21,NNE,15,3.0,4.0,93,0.00,,,0.00,Wunderground PWS Mod,2013-11-17 01:05:00,
2013-11-16 20:10:00,29.0,27.2,30.21,NNE,15,2.0,4.0,93,0.00,,,0.00,Wunderground PWS Mod,2013-11-17 01:10:00,
2013-11-16 20:15:00,29.0,27.2,30.21,NNE,15,2.0,4.0,93,0.00,,,0.00,Wunderground PWS Mod,2013-11-17 01:15:00,
2013-11-16 20:20:00,29.0,27.2,30.21,NNE,15,3.0,4.0,93,0.00,,,0.00,Wunderground PWS Mod,2013-11-17 01:20:00,
2013-11-16 20:25:00,28.8,27.0,30.21,NNE,15,3.0,4.0,93,0.00,,,0.00,Wunderground PWS Mod,2013-11-17 01:25:00,
2013-11-16 20:30:00,29.0,27.5,30.21,NNE,15,2.0,4.0,94,0.00,,,0.00,Wunderground PWS Mod,2013-11-17 01:30:00,
2013-11-16 20:35:00,28.8,27.0,30.21,NNE,15,3.0,4.0,93,0.00,,,0.00,Wunderground PWS Mod,2013-11-17 01:35:00,
2013-11-16 20:40:00,28.8,27.0,30.21,NNE,15,3.0,4.0,93,0.00,,,0.00,Wunderground PWS Mod,2013-11-17 01:40:00,
2013-11-16 20:45:00,28.7,26.9,30.21,NNE,15,3.0,4.0,93,0.00,,,0.00,Wunderground PWS Mod,2013-11-17 01:45:00,
2013-11-16 20:50:00,28.7,27.2,30.21,NNE,15,3.0,4.0,94,0.00,,,0.00,Wunderground PWS Mod,2013-11-17 01:50:00,
2013-11-16 20:55:00,28.5,27.0,30.21,NNE,15,1.0,4.0,94,0.00,,,0.00,Wunderground PWS Mod,2013-11-17 01:55:00,
2013-11-16 21:00:00,28.5,26.7,30.22,NNE,15,1.0,4.0,93,0.00,,,0.00,Wunderground PWS Mod,2013-11-17 02:00:00,
2013-11-16 21:05:00,28.2,26.7,30.22,NNE,15,1.0,4.0,94,0.00,,,0.00,Wunderground PWS Mod,2013-11-17 02:05:00,
2013-11-16 21:10:00,28.2,26.7,30.22,NNE,15,1.0,4.0,94,0.00,,,0.00,Wunderground PWS Mod,2013-11-17 02:10:00,
2013-11-16 21:15:00,28.2,26.7,30.21,NNE,15,0.0,4.0,94,0.00,,,0.00,Wunderground PWS Mod,2013-11-17 02:15:00,
2013-11-16 21:20:00,28.2,26.7,30.21,NNE,15,0.0,4.0,94,0.00,,,0.00,Wunderground PWS Mod,2013-11-17 02:20:00,
2013-11-16 21:25:00,28.1,26.6,30.21,NNE,15,0.0,4.0,94,0.00,,,0.00,Wunderground PWS Mod,2013-11-17 02:25:00,
2013-11-16 21:30:00,28.1,26.6,30.22,NNE,15,0.0,4.0,94,0.00,,,0.00,Wunderground PWS Mod,2013-11-17 02:30:00,
2013-11-16 21:35:00,28.1,26.6,30.22,NNE,15,0.0,3.0,94,0.00,,,0.00,Wunderground PWS Mod,2013-11-17 02:35:00,
2013-11-16 21:40:00,28.1,26.9,30.22,NNE,15,0.0,3.0,95,0.00,,,0.00,Wunderground PWS Mod,2013-11-17 02:40:00,
2013-11-16 21:45:00,28.1,26.9,30.21,NNE,15,0.0,3.0,95,0.00,,,0.00,Wunderground PWS Mod,2013-11-17 02:45:00,
2013-11-16 21:50:00,28.1,26.9,30.21,NNE,15,0.0,3.0,95,0.00,,,0.00,Wunderground PWS Mod,2013-11-17 02:50:00,
2013-11-16 21:55:00,28.1,26.9,30.21,NNE,15,0.0,3.0,95,0.00,,,0.00,Wunderground PWS Mod,2013-11-17 02:55:00,
2013-11-16 22:00:00,27.9,26.7,30.20,NNE,15,0.0,3.0,95,0.00,,,0.00,Wunderground PWS Mod,2013-11-17 03:00:00,
2013-11-16 22:05:00,27.9,26.7,30.20,NNE,15,0.0,2.0,95,0.00,,,0.00,Wunderground PWS Mod,2013-11-17 03:05:00,
2013-11-16 22:10:00,27.8,26.6,30.20,NNE,15,0.0,2.0,95,0.00,,,0.00,Wunderground PWS Mod,2013-11-17 03:10:00,
2013-11-16 22:15:00,27.6,26.4,30.21,NNE,15,0.0,2.0,95,0.00,,,0.00,Wunderground PWS Mod,2013-11-17 03:15:00,
2013-11-16 22:20:00,27.5,26.3,30.21,NNE,15,0.0,3.0,95,0.00,,,0.00,Wunderground PWS Mod,2013-11-17 03:20:00,
2013-11-16 22:25:00,27.5,26.5,30.21,NNE,15,1.0,2.0,96,0.00,,,0.00,Wunderground PWS Mod,2013-11-17 03:25:00,
2013-11-16 22:30:00,27.5,26.5,30.21,NNE,15,2.0,4.0,96,0.00,,,0.00,Wunderground PWS Mod,2013-11-17 03:30:00,
2013-11-16 22:35:00,27.3,26.3,30.21,NNE,15,2.0,4.0,96,0.00,,,0.00,Wunderground PWS Mod,2013-11-17 03:35:00,
2013-11-16 22:40:00,27.3,26.3,30.21,NNE,15,1.0,4.0,96,0.00,,,0.00,Wunderground PWS Mod,2013-11-17 03:40:00,
2013-11-16 22:45:00,27.5,26.8,30.21,NNE,15,1.0,4.0,97,0.00,,,0.00,Wunderground PWS Mod,2013-11-17 03:45:00,
2013-11-16 22:50:00,27.6,26.6,30.21,NNE,15,1.0,4.0,96,0.00,,,0.00,Wunderground PWS Mod,2013-11-17 03:50:00,
2013-11-16 22:55:00,27.6,26.6,30.21,NNE,15,0.0,4.0,96,0.00,,,0.00,Wunderground PWS Mod,2013-11-17 03:55:00,
2013-11-16 23:00:00,27.5,26.5,30.21,NNE,15,0.0,4.0,96,0.00,,,0.00,Wunderground PWS Mod,2013-11-17 04:00:00,
2013-11-16 23:05:00,27.3,26.3,30.21,NNE,15,0.0,4.0,96,0.00,,,0.00,Wunderground PWS Mod,2013-11-17 04:05:00,
2013-11-16 23:10:00,27.2,26.2,30.21,NNE,15,0.0,4.0,96,0.00,,,0.00,Wunderground PWS Mod,2013-11-17 04:10:00,
2013-11-16 23:15:00,27.0,26.8,30.21,NNE,15,1.0,4.0,99,0.00,,,0.00,Wunderground PWS Mod,2013-11-17 04:15:00,
2013-11-16 23:20:00,26.9,25.9,30.21,NNE,15,1.0,4.0,96,0.00,,,0.00,Wunderground PWS Mod,2013-11-17 04:20:00,
2013-11-16 23:25:00,26.9,26.2,30.21,NNE,15,1.0,4.0,97,0.00,,,0.00,Wunderground PWS Mod,2013-11-17 04:25:00,
2013-11-16 23:30:00,26.9,26.2,30.21,NNE,15,0.0,4.0,97,0.00,,,0.00,Wunderground PWS Mod,2013-11-17 04:30:00,
2013-11-16 23:35:00,26.9,26.2,30.21,NNE,15,0.0,4.0,97,0.00,,,0.00,Wunderground PWS Mod,2013-11-17 04:35:00,
2013-11-16 23:40:00,26.7,25.7,30.21,NNE,15,0.0,4.0,96,0.00,,,0.00,Wunderground PWS Mod,2013-11-17 04:40:00,
2013-11-16 23:45:00,26.7,25.7,30.20,NNE,15,0.0,4.0,96,0.00,,,0.00,Wunderground PWS Mod,2013-11-17 04:45:00,
2013-11-16 23:50:00,26.6,25.9,30.20,NNE,15,0.0,4.0,97,0.00,,,0.00,Wunderground PWS Mod,2013-11-17 04:50:00,
2013-11-16 23:55:00,26.6,25.9,30.20,NNE,15,0.0,4.0,97,0.00,,,0.00,Wunderground PWS Mod,2013-11-17 04:55:00,